Welcome to the New NWS' Forecast!
Most changes are behind the scenes, but click here for differences you might notice.
Latest weather observations around

Craig Field / Selma (KSEM)

Using English Units (Switch to International System of Units)
Date/ Time (CST) Wind (mph) Vis. (mi) Weather Sky Cond. Temp (°F) Rel. Humidity Wind Chill (°F) Heat Index (°F) Pressure Precip. (in)
Air Dwpt 6 hour Altimeter (inHg) Sea level (inHg) 1 hr 3 hr 6 hr
Max Min
Jan 21 17:35 ESE 3 10 Clear CLR 61 45     55%     30.12        
Jan 21 17:15 SE 3 10 Clear CLR 63 45     52%     30.12        
Jan 21 16:55 SSE 3 10 Clear CLR 66 43     43%     30.13        
Jan 21 16:35 SE 7 10 Clear CLR 68 43     40%     30.12        
Jan 21 16:15 SSE 5 10 Clear CLR 70 45     40%     30.12        
Jan 21 15:55 SE 7 10 Clear CLR 72 43     35%   70 30.12        
Jan 21 15:35 SSE 10 10 Clear CLR 73 43     33%   72 30.12        
Jan 21 15:15 SSE 7 10 Clear CLR 73 43     33%   72 30.12        
Jan 21 14:55 SE 10 10 Clear CLR 73 43     33%   72 30.12        
Jan 21 14:35 S 7 10 Clear CLR 73 43     33%   72 30.13        
Jan 21 14:15 SE 8 10 Clear CLR 73 43     33%   72 30.13        
Jan 21 13:55 Calm 10 Clear CLR 72 43     35%   70 30.14        
Jan 21 13:35 ESE 11 10 Clear CLR 72 43     35%   70 30.14        
Jan 21 13:15 SE 9 10 Clear CLR 72 43     35%   70 30.15        
Jan 21 12:55 SE 7 10 Clear CLR 70 43     38%     30.16        
Jan 21 12:35 SE 9 10 Clear CLR 70 43     38%     30.17        
Jan 21 12:15 ESE 9 10 Clear CLR 68 43     40%     30.18        
Jan 21 11:55 ESE 6 10 Clear CLR 66 41     40%     30.2        
Notice The following observation data may not be complete
Jan 21 11:35   10 Clear CLR          %              
Jan 21 11:15 6 10 Clear CLR 64 43     45%     30.23        
Jan 21 10:55 7 10 Clear CLR 63 43     48%     30.25        
Jan 21 10:35 6 10 Clear CLR 61 43     51%     30.26        
Jan 21 10:15 E 6 10 Clear CLR 59 43     55%     30.27        
Jan 21 09:55 ESE 7 10 Clear CLR 57 43     59%     30.28        
Jan 21 09:35 ESE 5 10 Clear CLR 55 41     58%     30.28        
Jan 21 09:15 ESE 6 10 Clear CLR 54 41     62%     30.27        
Jan 21 08:55 ESE 5 10 Clear CLR 50 41     71% 48   30.27        
Jan 21 08:35 5 10 Clear CLR 48 41     76% 46   30.26        
Jan 21 08:15 ESE 3 10 Clear CLR 45 39     81% 43   30.26        
Jan 21 07:55 Calm 10 Clear CLR 41 37     87%     30.26        
Jan 21 07:35 Calm 10 Clear CLR 37 36     93%     30.25        
Jan 21 07:15 Calm 10 Clear CLR 34 32     93%     30.24        
Jan 21 06:55 Calm 10 Clear CLR 36 34     93%     30.23        
Jan 21 06:35 Calm 10 Clear CLR 36 34     93%     30.23        
Jan 21 06:15 W 5 10 Clear CLR 36 34     93% 32   30.23        
Jan 21 05:55 Calm 10 Clear CLR 36 34     93%     30.22        
Jan 21 05:35 ESE 5 10 Clear CLR 34 32     93% 29   30.21        
Jan 21 05:15 Calm 10 Clear CLR 34 32     93%     30.22        
Jan 21 04:55 Calm 10 Clear CLR 36 34     93%     30.23        
Jan 21 04:35 Calm 10 Clear CLR 36 34     93%     30.23        
Jan 21 04:15 Calm 10 Clear CLR 36 34     93%     30.22        
Jan 21 03:55 Calm 10 Clear CLR 34 32     93%     30.21        
Jan 21 03:35 Calm 10 Clear CLR 36 34     93%     30.21        
Jan 21 03:15 Calm 10 Clear CLR 34 32     93%     30.21        
Jan 21 02:55 Calm 10 Clear CLR 36 32     87%     30.22        
Jan 21 02:35 Calm 10 Clear CLR 37 36     93%     30.22        
Jan 21 02:15 Calm 10 Clear CLR 37 36     93%     30.22        
Jan 21 01:55 Calm 10 Clear CLR 37 34     87%     30.22        
Jan 21 01:35 Calm 10 Clear CLR 37 36     93%     30.22        
Jan 21 01:15 Calm 10 Clear CLR 39 36     87%     30.22        
Jan 21 00:55 Calm 10 Clear CLR 39 36     87%     30.22        
Jan 21 00:35 Calm 10 Clear CLR 39 36     87%     30.22        
Jan 21 00:15 SE 3 10 Clear CLR 39 36     87% 37   30.22        
Jan 20 23:55 Calm 10 Clear CLR 41 37     87%     30.23        
Jan 20 23:35 Calm 10 Clear CLR 39 36     87%     30.23        
Jan 20 23:15 Calm 10 Clear CLR 39 36     87%     30.23        
Jan 20 22:55 Calm 10 Clear CLR 41 37     87%     30.24        
Jan 20 22:35 Calm 10 Clear CLR 41 37     87%     30.24        
Jan 20 22:15 ESE 3 10 Clear CLR 41 37     87% 39   30.24        
Jan 20 21:55 SE 6 10 Clear CLR 39 36     87% 35   30.24        
Jan 20 21:35 SE 5 10 Clear CLR 41 37     87% 38   30.24        
Jan 20 21:15 Calm 10 Clear CLR 39 37     93%     30.25        
Jan 20 20:55 SSE 5 10 Clear CLR 41 37     87% 38   30.25        
Jan 20 20:35 S 5 10 Clear CLR 41 37     87% 38   30.25        
Jan 20 20:15 SSE 5 10 Clear CLR 41 37     87% 38   30.25        
Jan 20 19:55 SE 6 10 Clear CLR 41 37     87% 37   30.25        
Jan 20 19:35 SE 5 10 Clear CLR 43 37     81% 40   30.25        
Jan 20 19:15 SE 3 10 Clear CLR 43 37     81% 41   30.25        
Jan 20 18:55 SE 5 10 Clear CLR 46 39     76% 44   30.25        
Notice The following observation data may not be complete
Jan 20 18:35   10 Clear CLR          %              
Jan 20 18:15 Calm 10 Clear CLR 50 41     71%     30.24        
Jan 20 17:55 Calm 10 Mostly Clear FEW065 50 41     71%     30.24        
Jan 20 17:35 Calm 10 Mostly Cloudy BKN065 55 41     58%     30.23        
Jan 20 17:15 Calm 10 Mostly Clear FEW065 57 39     51%     30.23        
Jan 20 16:55 Calm 10 Clear CLR 59 39     48%     30.23        
Jan 20 16:35 SSE 5 10 Clear CLR 63 37     39%     30.23        
Jan 20 16:15 SE 8 10 Clear CLR 64 37     37%     30.22        
Jan 20 15:55 ESE 7 10 Clear CLR 64 37     37%     30.22        
Jan 20 15:35 SE 6 10 Clear CLR 64 37     37%     30.22        
Jan 20 15:15 S 5 10 Clear CLR 64 37     37%     30.22        
Jan 20 14:55 SSE 5 10 Mostly Clear FEW060 64 37     37%     30.22        
Jan 20 14:35 SSE 6 10 Mostly Cloudy BKN060 64 37     37%     30.22        
Jan 20 14:15 Calm 10 Cloudy OVC060 63 36     36%     30.23        
Jan 20 13:55 SE 5 10 Cloudy OVC060 63 36     36%     30.24        
Jan 20 13:35 SSE 6 10 Cloudy OVC065 63 36     36%     30.24        
Jan 20 13:15 SSE 5 10 Mostly Cloudy BKN065 63 36     36%     30.25        
Jan 20 12:55 6 10 Mostly Clear FEW070 63 36     36%     30.26        
Jan 20 12:35 S 9 10 Clear CLR 61 36     39%     30.27        
Jan 20 12:15 S 7 10 Clear CLR 61 34     36%     30.28        
Jan 20 11:55 S 8 10 Clear CLR 59 30     33%     30.29        
Jan 20 11:35 S 8 10 Mostly Clear FEW065 59 28     31%     30.3        
Jan 20 11:15 5 10 Mostly Cloudy BKN060 55 25     30%     30.31        
Jan 20 10:55 S 3 10 Cloudy OVC060 54 23     30%     30.32        
Jan 20 10:35 S 5 10 Cloudy OVC060 52 21     30%     30.33        
Jan 20 10:15 SE 5 10 Cloudy OVC060 50 21     32% 48   30.33        
Jan 20 09:55 SE 5 10 Cloudy OVC055 48 23     37% 46   30.34        
Jan 20 09:35 SSE 3 10 Cloudy OVC050 48 25     40% 47   30.34        
Jan 20 09:15 SE 6 10 Cloudy OVC050 46 27     46% 43   30.33        
Jan 20 08:55 SE 5 10 Cloudy OVC050 45 27     49% 42   30.34        
Jan 20 08:35 Calm 10 Cloudy OVC050 43 27     52%     30.33        
Jan 20 08:15 SE 5 10 Cloudy OVC050 41 28     61% 38   30.32        
Jan 20 07:55 Calm 10 Mostly Cloudy BKN055 39 28     65%     30.32        
Jan 20 07:35 Calm 10 Clear CLR 36 28     75%     30.31        
Jan 20 07:15 Calm 10 Clear CLR 36 27     69%     30.3        
Jan 20 06:55 Calm 10 Clear CLR 36 27     69%     30.3        
Jan 20 06:35 Calm 10 Mostly Clear FEW050 37 27     65%     30.29        
Jan 20 06:15 Calm 10 Mostly Cloudy BKN050 37 27     65%     30.28        
Jan 20 05:55 Calm 10 Cloudy OVC050 39 28     65%     30.28        
Jan 20 05:35 Calm 10 Cloudy OVC049 41 27     56%     30.28        
Jan 20 05:15 WSW 3 10 Cloudy OVC049 41 27     56% 39   30.28        
Jan 20 04:55 SE 5 10 Cloudy OVC046 41 27     56% 38   30.26        
Jan 20 04:35 SSE 5 10 Cloudy OVC046 41 28     61% 38   30.27        
Jan 20 04:15 Calm 10 Cloudy OVC045 41 27     56%     30.27        
Jan 20 03:55 Calm 10 Cloudy OVC046 39 27     60%     30.28        
Jan 20 03:35 Calm 10 Cloudy OVC046 39 27     60%     30.26        
Jan 20 03:15 Calm 10 Cloudy OVC046 39 27     60%     30.27        
Jan 20 02:55 Calm 10 Cloudy OVC046 39 25     56%     30.27        
Jan 20 02:35 Calm 10 Cloudy OVC045 39 27     60%     30.28        
Jan 20 02:15 Calm 10 Cloudy OVC045 39 27     60%     30.27        
Jan 20 01:55 Calm 10 Cloudy OVC045 39 25     56%     30.27        
Jan 20 01:35 SE 6 10 Cloudy OVC046 37 27     65% 33   30.27        
Jan 20 01:15 Calm 10 Cloudy OVC046 37 27     65%     30.28        
Jan 20 00:55 Calm 10 Cloudy OVC046 37 27     65%     30.28        
Jan 20 00:35 Calm 10 Cloudy OVC047 37 27     65%     30.27        
Jan 20 00:15 Calm 10 Cloudy OVC047 36 27     69%     30.27        
Jan 19 23:55 Calm 10 Cloudy OVC048 37 27     65%     30.28        
Jan 19 23:35 Calm 10 Cloudy OVC048 36 27     69%     30.28        
Jan 19 23:15 NNE 5 10 Cloudy OVC048 36 27     69% 32   30.27        
Jan 19 22:55 NW 5 10 Cloudy OVC047 36 27     69% 32   30.27        
Jan 19 22:35 Calm 10 Cloudy OVC047 36 28     75%     30.27        
Jan 19 22:15 Calm 10 Cloudy OVC047 36 27     69%     30.28        
Jan 19 21:55 SE 5 10 Cloudy OVC047 36 25     64% 32   30.28        
Jan 19 21:35 Calm 10 Cloudy OVC047 34 25     69%     30.28        
Jan 19 21:15 Calm 10 Cloudy OVC047 34 23     64%     30.28        
Jan 19 20:55 SE 5 10 Cloudy OVC047 32 25     74% 27   30.28        
Jan 19 20:35 Calm 10 Cloudy OVC048 32 21     64%     30.28        
Jan 19 20:15 Calm 10 Cloudy OVC048 32 23     69%     30.28        
Jan 19 19:55 Calm 10 Cloudy OVC048 32 23     69%     30.29        
Jan 19 19:35 Calm 10 Mostly Cloudy BKN048 34 21     60%     30.29        
Jan 19 19:15 Calm 10 Partly Cloudy SCT049 32 23     69%     30.29        
Jan 19 18:55 S 3 10 Mostly Clear FEW049 34 23     64% 31   30.29        
Jan 19 18:35 SE 5 10 Partly Cloudy SCT049 36 23     60% 32   30.27        
Jan 19 18:15 Calm 10 Partly Cloudy SCT049 39 21     48%     30.27        
Jan 19 17:55 Calm 10 Cloudy OVC049 41 21     45%     30.27        
Jan 19 17:35 SSE 3 10 Cloudy OVC050 43 19     39% 41   30.27        
Jan 19 17:15 Calm 10 Partly Cloudy SCT050 45 16     31%     30.27        
Jan 19 16:55 Calm 10 Clear CLR 50 10     20%     30.27        
Jan 19 16:35 WNW 3 10 Clear CLR 50 12     22% 49   30.27        
Jan 19 16:15 Calm 10 Clear CLR 52 12     20%     30.28        
Jan 19 15:55 Calm 10 Clear CLR 54 10     17%     30.28        
Jan 19 15:35 Calm 10 Clear CLR 52 9     17%     30.28        
Jan 19 15:15 Calm 10 Clear CLR 52 7     16%     30.28        
Jan 19 14:55 Calm 10 Clear CLR 54 7     15%     30.28        
Jan 19 14:35 WSW 5 10 Clear CLR 52 9     17%     30.28        
Jan 19 14:15 5 10 Clear CLR 52 12     20%     30.29        
Jan 19 13:55 NNW 5 10 Clear CLR 50 10     20% 48   30.29        
Jan 19 13:35 WNW 6 10 Clear CLR 50 10     20% 48   30.3        
Jan 19 13:15 5 10 Clear CLR 50 12     22% 48   30.31        
Jan 19 12:55 W 7 10 Clear CLR 48 12     23% 45   30.32        
Jan 19 12:35 SW 3 10 Clear CLR 48 14     25% 47   30.33        
Jan 19 12:15 5 10 Clear CLR 46 16     29% 44   30.35        
Jan 19 11:55 Calm 10 Clear CLR 45 16     31%     30.37        
Jan 19 11:35 Calm 10 Clear CLR 45 16     31%     30.37        
Jan 19 11:15 Calm 10 Clear CLR 43 16     33%     30.39        
Jan 19 10:55 Calm 10 Clear CLR 41 16     36%     30.4        
Jan 19 10:35 Calm 10 Clear CLR 39 18     41%     30.4        
Jan 19 10:15 Calm 10 Clear CLR 37 19     48%     30.41        
Jan 19 09:35 Calm 10 Clear CLR 34 23     64%     30.41        
Jan 19 09:15 Calm 10 Clear CLR 32 23     69%     30.41        
Jan 19 08:55 Calm 10 Clear CLR 30 23     74%     30.41        
Jan 19 08:35 Calm 10 Clear CLR 27 21     80%     30.4        
Jan 19 08:15 Calm 10 Clear CLR 25 21     86%     30.4        
Jan 19 07:55 Calm 10 Clear CLR 23 18     79%     30.4        
Jan 19 07:35 Calm 10 Clear CLR 19 16     86%     30.4        
Jan 19 07:15 Calm 10 Clear CLR 18 14     86%     30.39        
Jan 19 06:55 Calm 10 Clear CLR 16 12     85%     30.39        
Jan 19 06:35 Calm 10 Clear CLR 16 12     85%     30.38        
Jan 19 06:15 Calm 10 Clear CLR 16 12     85%     30.38        
Jan 19 05:55 Calm 10 Clear CLR 18 14     86%     30.38        
Jan 19 05:35 Calm 10 Clear CLR 18 14     86%     30.37        
Jan 19 05:15 Calm 10 Mostly Clear FEW014 18 14     86%     30.37        
Jan 19 04:55 Calm 10 Partly Cloudy SCT014 19 14     79%     30.37        
Jan 19 04:35 Calm 10 Clear CLR 18 14     86%     30.37        
Jan 19 04:15 Calm 10 Clear CLR 18 14     86%     30.37        
Jan 19 03:55 ESE 3 10 Clear CLR 16 14     92% 10   30.38        
Jan 19 03:35 SE 5 10 Clear CLR 18 14     86% 11   30.38        
Jan 19 03:15 SE 3 10 Clear CLR 18 14     86% 12   30.39        
Jan 19 02:55 Calm 10 Clear CLR 19 16     86%     30.39        
Jan 19 02:35 Calm 10 Clear CLR 18 14     86%     30.39        
Jan 19 02:15 Calm 10 Clear CLR 18 16     93%     30.39        
Jan 19 01:55 Calm 10 Clear CLR 19 16     86%     30.4        
Jan 19 01:35 Calm 10 Clear CLR 19 16     86%     30.4        
Jan 19 01:15 Calm 10 Clear CLR 21 18     86%     30.4        
Jan 19 00:55 Calm 10 Clear CLR 21 18     86%     30.4        
Jan 19 00:35 Calm 10 Clear CLR 21 18     86%     30.4        
Jan 19 00:15 Calm 10 Clear CLR 21 18     86%     30.39        
Jan 18 23:55 Calm 10 Clear CLR 21 18     86%     30.4        
Jan 18 23:35 Calm 10 Clear CLR 21 18     86%     30.4        
Jan 18 23:15 Calm 10 Clear CLR 23 18     79%     30.4        
Jan 18 22:55 Calm 10 Clear CLR 21 18     86%     30.41        
Jan 18 22:35 Calm 10 Clear CLR 21 18     86%     30.41        
Jan 18 22:15 Calm 10 Clear CLR 23 19     86%     30.41        
Jan 18 21:55 Calm 10 Clear CLR 23 18     79%     30.41        
Jan 18 21:35 Calm 10 Clear CLR 23 19     86%     30.42        
Jan 18 21:15 Calm 10 Clear CLR 25 19     80%     30.41        
Jan 18 20:35 Calm 10 Clear CLR 23 18     79%     30.4        
Jan 18 20:15 Calm 10 Clear CLR 27 19     74%     30.41        
Jan 18 19:55 SE 3 10 Clear CLR 25 18     74% 21   30.41        
Jan 18 19:35 Calm 10 Clear CLR 27 19     74%     30.42        
Jan 18 19:15 Calm 10 Clear CLR 27 19     74%     30.41        
Jan 18 18:55 Calm 10 Clear CLR 27 18     68%     30.41        
Jan 18 18:35 Calm 10 Clear CLR 28 19     69%     30.41        
Jan 18 18:15 Calm 10 Clear CLR 30 18     59%     30.4        
Jan 18 17:55 Calm 10 Clear CLR 32 18     55%     30.4        
Jun 12 07:35 ESE 6 10 Clear CLR 77 72     83%   78 30.14        
Jun 11 21:15 Calm 10 Clear   77 73     89%   79 30.1        
Notice The following observation data may not be complete
Jun 11 20:35   10 Cloudy FEW055 OVC065          %              
Jun 11 17:35 SSE 6 10 Light Rain SCT032 BKN050 BKN065 73 70     89%   75 30.05        
Notice The following observation data may not be complete
Jun 11 17:15 SE 14 3 Clear     70      %     30.07        
Jun 11 14:55 E 9 10 Mostly Clear FEW047 FEW060 91 68     46%   96 30.07        
Jun 11 02:35 Calm 10 Mostly Clear FEW055 68 64     88%     30.05        
Jun 10 23:35 Calm 10 Clear CLR 70 64     83%     30.06        
Jun 10 12:55 SE 9 10 Mostly Cloudy FEW055 BKN080 86 59     40%   85 30.06        
Jun 09 22:55 Calm 10 Mostly Cloudy BKN060 BKN070 68 64     88%     29.98        
Jun 09 16:35 W 8 10 Clear CLR 86 57     38%   85 29.92        
Notice The following observation data may not be complete
Jun 09 12:35   10 Partly Cloudy SCT055          %              
Jun 08 08:35 Calm 10 Clear CLR 70 59     69%     29.92        
Jun 07 22:15 N 7 10 Mostly Cloudy BKN070 BKN080 73 57     57%   73 29.85        
Jun 07 20:15 NNE 5 10 Mostly Cloudy BKN060 BKN070 77 63     61%   77 29.81        
Jun 07 19:15 NNE 10 10 Mostly Clear FEW080 81 59     48%   81 29.8        
Notice The following observation data may not be complete
Jun 07 14:35   10 Mostly Clear FEW050 FEW055          %              
Jun 07 12:35 N 11 10 Mostly Cloudy BKN037 82 66     58%   85 29.77        
Jun 07 11:55 N 8 10 Partly Cloudy SCT032 SCT037 82 66     58%   85 29.77        
Jun 07 09:35 NNE 8 10 Clear CLR 77 64     65%   77 29.78        
Notice The following observation data may not be complete
Jun 06 09:15   10 Cloudy OVC005          %              
Jun 05 20:15 E 7 10 Cloudy BKN004 BKN080 OVC090 73 72     94%   75 29.79